Hancock, MI

12:43 PM EST on February 08, 2016 (GMT -0500)
Houghton County Memorial

Weather History for KCMX - November, 2013

Change the Weather History Date:

Saturday, November 2, 2013

  Actual Average Record
Temperature  
Mean Temperature 37 °F -  
Max Temperature 39 °F 44 °F 62 °F (1990)
Min Temperature 35 °F 32 °F 14 °F (1966)
Degree Days  
Heating Degree Days 28    
Moisture  
Dew Point 30 °F    
Average Humidity 76    
Maximum Humidity 87    
Minimum Humidity 65    
Precipitation  
Precipitation 0.01 in - - ()
Sea Level Pressure  
Sea Level Pressure 29.97 in    
Wind  
Wind Speed 6 mph (East)    
Max Wind Speed 12 mph    
Max Gust Speed -    
Visibility 10 miles    
Events Rain    
Averages and records for this station are not official NWS values.
T = Trace of Precipitation, MM = Missing Value Source: NWS Daily Summary

Daily Weather History Graph

Daily Weather History Graph

Search for Another Location

Airport or City:

Trip Planner

Search our weather history database for the weather conditions in past years. The results will help you decide how hot, cold, wet, or windy it might be!

Date:

Astronomy

Nov. 02, 2013 Rise Set
Actual Time 8:38 AM EDT 6:35 PM EDT
Civil Twilight 8:06 AM EDT 7:07 PM EDT
Nautical Twilight 7:30 AM EDT 7:43 PM EDT
Astronomical Twilight 6:55 AM EDT 8:19 PM EDT
Moon 7:33 AM EDT (11/2) 6:08 PM EDT (11/2)
Length of Visible Light 11h 00m
Length of Day
9h 56m
Waning Crescent, 1% of the Moon is Illuminated
Nov 2
Waning Crescent
Nov 3
New
Nov 10
First Quarter
Nov 17
Full
Nov 25
Last Quarter

Hourly Weather History & Observations

Time (EDT) Temp. Windchill Dew Point Humidity Pressure Visibility Wind Dir Wind Speed Gust Speed Precip Events Conditions
12:53 AM 35.1 °F 30.1 °F 30.9 °F 85% 29.76 in 10.0 mi North 5.8 mph - N/A   Mostly Cloudy
1:53 AM 37.0 °F 32.4 °F 32.0 °F 82% 29.78 in 10.0 mi North 5.8 mph - N/A   Overcast
2:53 AM 37.0 °F 34.5 °F 32.0 °F 82% 29.80 in 10.0 mi North 3.5 mph - N/A   Overcast
3:53 AM 37.9 °F - 30.9 °F 76% 29.81 in 10.0 mi Calm Calm - N/A   Overcast
4:32 AM 37.4 °F 29.8 °F 32.0 °F 81% 29.80 in 6.0 mi NE 11.5 mph - 0.01 in Rain Light Rain
4:53 AM 37.0 °F 34.5 °F 33.1 °F 86% 29.83 in 10.0 mi ENE 3.5 mph - 0.01 in   Overcast
5:03 AM 37.4 °F 34.9 °F 33.8 °F 87% 29.81 in 10.0 mi NE 3.5 mph - N/A   Overcast
5:53 AM 36.0 °F 32.1 °F 32.0 °F 86% 29.86 in 10.0 mi East 4.6 mph - N/A   Overcast
6:53 AM 36.0 °F 28.5 °F 30.9 °F 82% 29.88 in 10.0 mi NE 10.4 mph - N/A   Overcast
7:53 AM 35.1 °F 28.6 °F 30.9 °F 85% 29.91 in 10.0 mi East 8.1 mph - N/A   Overcast
8:53 AM 35.1 °F 30.1 °F 30.0 °F 82% 29.94 in 10.0 mi ENE 5.8 mph - N/A   Overcast
9:53 AM 35.1 °F 29.3 °F 30.0 °F 82% 29.96 in 10.0 mi East 6.9 mph - N/A   Overcast
10:53 AM 36.0 °F 30.3 °F 28.0 °F 73% 29.99 in 10.0 mi ENE 6.9 mph - N/A   Overcast
11:53 AM 37.0 °F 30.4 °F 28.0 °F 70% 30.01 in 10.0 mi East 9.2 mph - N/A   Overcast
12:53 PM 37.9 °F 32.7 °F 27.0 °F 65% 30.02 in 10.0 mi East 6.9 mph - N/A   Overcast
1:53 PM 39.0 °F 34.0 °F 28.9 °F 67% 30.03 in 10.0 mi East 6.9 mph - N/A   Overcast
2:53 PM 39.0 °F 32.8 °F 28.9 °F 67% 30.04 in 10.0 mi East 9.2 mph - N/A   Overcast
3:53 PM 37.9 °F 32.7 °F 28.0 °F 68% 30.05 in 10.0 mi East 6.9 mph - N/A   Overcast
4:53 PM 37.9 °F 35.5 °F 28.0 °F 68% 30.07 in 10.0 mi East 3.5 mph - N/A   Overcast
5:53 PM 37.0 °F 31.6 °F 28.0 °F 70% 30.08 in 10.0 mi ESE 6.9 mph - N/A   Overcast
6:53 PM 36.0 °F 32.1 °F 27.0 °F 70% 30.10 in 10.0 mi ESE 4.6 mph - N/A   Overcast
7:53 PM 36.0 °F 30.3 °F 27.0 °F 70% 30.11 in 10.0 mi East 6.9 mph - N/A   Overcast
8:53 PM 35.1 °F 31.0 °F 27.0 °F 72% 30.13 in 10.0 mi East 4.6 mph - N/A   Overcast
9:53 PM 35.1 °F 32.2 °F 28.0 °F 76% 30.14 in 10.0 mi East 3.5 mph - N/A   Overcast
10:53 PM 35.1 °F 31.0 °F 28.9 °F 78% 30.14 in 10.0 mi ESE 4.6 mph - N/A   Overcast
11:53 PM 36.0 °F 32.1 °F 28.0 °F 73% 30.15 in 10.0 mi SSE 4.6 mph - N/A   Overcast